Flag Weather past 2 weeks in Ansbach, Bavaria, Germany

Now
52 °F

Fog.


Feels Like: 52 °F
Forecast: 45 / 57 °F
Wind: 2 mph from South

Location: Ansbach / Katterbach

Current Time: Oct 30, 2014 at 5:55:42 PM

Latest Report: Oct 30, 2014 at 4:58 PM


Visibility: 6 mi

Pressure: 30.36 "Hg

Humidity: 100%

Dew point: 52 °F

Location of AnsbachLocation

Historic Weather in Ansbach — Graph

°F

Ansbach temperature yesterday

Maximum temperature yesterday: 50 °F (at 11:55 AM)
Minimum temperature yesterday: 41 °F (at 12:58 AM)
Average temperature yesterday: 45 °F

Past Weeks' High & Low Weather Summary

 TemperatureHumidityPressure
High68 °F (Oct 19, 4:58 PM)100% (Oct 15, 9:58 PM)30.44 "Hg (Oct 15, 9:58 PM)
Low37 °F (Oct 25, 5:58 AM)63% (Oct 24, 1:58 PM)29.62 "Hg (Oct 21, 7:58 PM)
Average49 °F94%30.15 "Hg
* Reported Oct 15 4:58 PM — Oct 30 3:58 PM, Ansbach, Weather by CustomWeather, © 2014

Note: Actual official high and low records may vary slightly from our data, if they occured in-between our weather recording intervals... More about our weather records

Advertising

Ansbach weather history for previous 24 hours

 ConditionsComfort  
Time TempWeatherWind HumidityBarometerVisibility
3:58 PM
Oct 30
52 °FFog.2 mph100%30.35 "Hg6 mi
2:58 PM52 °FMostly cloudy.3 mph98%30.35 "HgN/A
1:58 PM52 °FFog.2 mph97%30.35 "Hg5 mi
12:58 PM52 °FFog.1 mph100%30.34 "Hg6 mi
11:58 AM49 °FFog.No wind100%30.34 "Hg3 mi
10:58 AM48 °FFog.2 mph100%30.33 "Hg1 mi
10:00 AM46 °FFog.2 mph100%30.27 "Hg1 mi
8:59 AM45 °FFog.No wind100%30.26 "Hg2 mi
7:58 AM44 °FFog.3 mph100%30.30 "Hg2 mi
6:59 AM43 °FFog.2 mph100%30.22 "Hg2 mi
6:02 AM43 °FFog.No wind100%30.20 "Hg4 mi
5:58 AM43 °FFog.1 mph100%30.26 "Hg4 mi
4:58 AM43 °FQuite cool.N/A100%30.26 "HgN/A
3:58 AM43 °FMostly cloudy.No wind99%30.25 "HgN/A
2:58 AM43 °FLight rain. Fog.2 mph100%30.24 "HgN/A
2:03 AM43 °FPassing clouds.No wind100%30.17 "HgN/A
1:58 AM43 °FDrizzle. Overcast.No wind98%30.17 "HgN/A
12:58 AM43 °FPartly cloudy.No wind93%30.17 "HgN/A
11:58 PM
Oct 29
43 °FOvercast.2 mph93%30.16 "HgN/A
10:58 PM45 °FOvercast.2 mph91%30.15 "HgN/A
9:58 PM45 °FOvercast.3 mph93%30.14 "HgN/A
8:58 PM45 °FOvercast.2 mph93%30.20 "HgN/A
7:58 PM47 °FOvercast.8 mph85%30.19 "HgN/A
6:58 PM47 °FOvercast.8 mph87%30.18 "HgN/A
5:58 PM48 °FOvercast.9 mph84%30.17 "HgN/A
Weather by CustomWeather, © 2014

See weather overviewHow to use our weather pages